User: anonymous
Location: Muenchen
(48.1800°N, 11.5800°E)
Time: 01:46:27
(UTC+02:00)
Language:

Cosmos 2233 Rocket - Orbit

View from above orbital plane
View from above orbital plane
View from above satellite
View from above satellite

Ground track
Ground track

The orbit data is extracted from the following two-line orbital elements,

1 22488U 93008B   14261.09146056 -.00000026  00000-0 -41976-4 0  9440
2 22488 082.9395 104.8773 0026321 154.2312 317.2621 13.77636840 86140
Epoch (UTC): 18 September 2014 02:11:42
Eccentricity: 0.0026321
inclination: 82.9395°
perigee height: 953 km
apogee height: 991 km
right ascension of ascending node: 104.8773°
argument of perigee: 154.2312°
revolutions per day: 13.77636840
mean anomaly at epoch: 317.2621°
orbit number at epoch: 8614

The dashed part of the orbit path shows where the satellite is in the earth's shadow,  

DLR